[[{"header":{"parameterUnit":"m.s-1","parameterCategory":1,"la1":30.2991,"la2":30.254,"lo1":-89.0895,"lo2":-89.0444,"dy":0.0017,"dx":0.0017,"nx":28,"ny":28,"refTime":"2025-04-21T09:00:00:Z","depth":0,"parameterNumber":2,"parameterNumberName":"U-component_of_WINDS"},"data":[0,0,0,0,0,0,0,0,0,0,0,0,0,0,0,0,0,0,0,0,0,0,0,0,0,0,0,0,0,0,0,0,0,0,0,0,0,0,0,0,0,0,0,0,0,0,0,0,0,0,0,0,0,0,0,0,0,0,-0.6702,-0.6702,0,-0.6681,-0.6681,-0.6681,-0.6663,-0.6662,-0.6662,-0.6662,-0.6643,-0.6643,-0.6643,0,0,0,0,0,0,0,0,0,0,0,0,0,-0.6727,-0.6727,-0.6702,-0.6702,-0.6701,-0.6681,-0.6681,-0.6681,-0.6663,-0.6662,-0.6662,-0.6662,-0.6644,-0.6643,-0.6643,0,0,0,0,0,0,0,0,0,0,0,0,0,-0.6712,-0.6726,-0.6702,-0.669,-0.6688,-0.6681,-0.6681,-0.6681,-0.6663,-0.6662,-0.6662,-0.6662,-0.6644,-0.6643,-0.6643,-0.6647,0,0,-0.6642,-0.6641,0,0,0,0,0,0,0,0,-0.6713,-0.6711,-0.6692,-0.669,-0.6689,-0.6674,-0.6683,-0.667,-0.6663,-0.6672,-0.6662,-0.6661,-0.6654,-0.6653,-0.665,-0.6646,-0.6645,-0.6641,-0.6641,-0.6641,-0.6641,0,0,0,0,0,0,0,-0.6714,-0.6712,-0.6694,-0.6691,-0.669,-0.6686,-0.6683,-0.6681,-0.6666,-0.6672,-0.667,-0.6668,-0.6653,-0.665,-0.6649,-0.6645,-0.6641,-0.6641,-0.6641,-0.6641,-0.6644,-0.6645,0,0,0,0,0,0,-0.6717,-0.6713,-0.6694,-0.6693,-0.67,-0.6686,-0.6683,-0.6679,-0.6665,-0.6663,-0.6668,-0.6667,-0.6651,-0.665,-0.6648,-0.6653,-0.6641,-0.6641,-0.664,-0.6644,-0.6645,-0.6645,0,0,0,0,0,0,-0.6717,-0.6715,-0.6695,-0.6703,-0.67,-0.6686,-0.6682,-0.6679,-0.6676,-0.6663,-0.666,-0.6668,-0.6651,-0.6649,-0.6647,-0.6652,-0.664,-0.664,-0.6644,-0.6644,-0.6645,-0.6662,0,0,0,0,0,0,-0.6718,-0.6716,-0.6717,-0.6703,-0.67,-0.6694,-0.6682,-0.6679,-0.6675,-0.6673,-0.6662,-0.666,-0.665,-0.6648,-0.6647,-0.6651,-0.664,-0.6643,-0.6644,-0.6645,-0.6661,-0.6663,-0.6665,0,0,0,0,0,-0.6719,-0.6723,-0.6717,-0.6715,-0.67,-0.6694,-0.6693,-0.6681,-0.6675,-0.6677,-0.6668,-0.666,-0.6652,-0.6648,-0.6647,-0.6651,-0.6643,-0.6644,-0.6645,-0.666,-0.6663,-0.6665,0,0,0,0,0,0,-0.6739,-0.6721,-0.6714,-0.6713,-0.6705,-0.6691,-0.6693,-0.6684,-0.6679,-0.6677,-0.6664,-0.6662,-0.6662,-0.6656,-0.6653,-0.6655,-0.6646,-0.6647,-0.6659,-0.6661,-0.6663,-0.6665,-0.6639,0,0,0,0,0,-0.6742,-0.6738,-0.6723,-0.6724,-0.672,-0.6707,-0.6704,-0.6696,-0.6688,-0.6684,-0.6676,-0.6669,-0.6665,-0.6662,-0.6658,-0.666,-0.6657,-0.6662,-0.6664,-0.6666,-0.6667,-0.6668,-0.667,-0.6648,-0.6648,-0.6648,0,0,-0.6751,-0.6741,-0.6739,-0.6728,-0.6721,-0.6717,-0.6704,-0.6702,-0.6699,-0.6684,-0.6682,-0.6676,-0.6667,-0.6667,-0.6667,-0.6663,-0.6672,-0.6667,-0.6668,-0.6668,-0.6669,-0.6671,-0.6673,-0.6648,-0.6648,-0.6648,0,0,-0.6765,-0.6757,-0.6757,-0.6749,-0.6739,-0.673,-0.673,-0.6717,-0.6711,-0.6709,-0.6698,-0.6695,-0.6688,-0.6682,-0.6678,-0.669,-0.6682,-0.6689,-0.6699,-0.6701,-0.6702,-0.6704,-0.6709,-0.6711,-0.6689,-0.6689,-0.6689,0,-0.6778,-0.6772,-0.6758,-0.6755,-0.6751,-0.6736,-0.6736,-0.673,-0.6719,-0.6717,-0.6711,-0.6702,-0.6695,-0.6694,-0.6697,-0.6694,-0.6694,-0.669,-0.6703,-0.6704,-0.6706,-0.671,-0.6712,-0.669,-0.669,-0.669,-0.669,0,-0.6788,-0.6784,-0.6785,-0.6773,-0.6769,-0.6768,-0.6755,-0.6752,-0.6744,-0.6736,-0.6734,-0.6724,-0.6718,-0.6717,-0.6709,-0.6715,-0.6713,-0.6705,-0.6697,-0.6709,-0.6713,-0.6715,-0.6692,-0.6691,-0.6691,-0.6691,0,0,-0.6815,-0.6795,-0.6796,-0.679,-0.6777,-0.6774,-0.6772,-0.6765,-0.6763,-0.6755,-0.6755,-0.6748,-0.6742,-0.6737,-0.6729,-0.673,-0.6741,-0.6723,-0.6722,-0.6727,-0.6747,-0.6754,-0.6756,-0.6735,-0.6735,-0.6735,-0.6748,0,-0.6828,-0.6823,-0.6811,-0.681,-0.6807,-0.6792,-0.6791,-0.6783,-0.6775,-0.6771,-0.6763,-0.6759,-0.675,-0.6747,-0.6747,-0.6739,-0.6745,-0.6738,-0.6735,-0.6735,-0.6739,-0.6758,-0.6765,-0.6778,-0.675,-0.675,-0.675,0,-0.6843,-0.6835,-0.6834,-0.6821,-0.6819,-0.6818,-0.681,-0.6806,-0.6797,-0.6791,-0.6786,-0.6776,-0.6775,-0.6766,-0.6764,-0.676,-0.6757,-0.6753,-0.6753,-0.6754,-0.6744,-0.676,-0.6781,-0.6784,-0.6752,-0.6752,-0.6752,0,-0.6864,-0.6853,-0.6852,-0.6847,-0.6831,-0.6831,-0.6824,-0.6815,-0.6811,-0.6804,-0.6802,-0.6796,-0.6793,-0.6788,-0.6777,-0.6771,-0.6777,-0.6767,-0.6773,-0.6773,-0.6776,-0.6776,-0.6799,-0.6772,-0.6772,-0.6772,-0.6772,0,-0.688,-0.6881,-0.6861,-0.686,-0.686,-0.6845,-0.6846,-0.6838,-0.683,-0.6828,-0.6814,-0.6813,-0.6798,-0.6795,-0.6786,-0.6787,-0.6785,-0.6781,-0.6779,-0.6783,-0.6784,-0.6782,-0.6782,-0.6773,-0.6773,-0.6773,-0.6773,0,-0.6905,-0.6891,-0.6889,-0.6873,-0.6869,-0.687,-0.6857,-0.6856,-0.6847,-0.6845,-0.6843,-0.6829,-0.6825,-0.6813,-0.6806,-0.68,-0.6804,-0.6799,-0.6807,-0.6806,-0.6813,-0.6813,-0.6836,-0.6839,-0.681,-0.681,-0.6811,0,-0.6917,-0.6917,-0.6901,-0.6898,-0.6892,-0.6887,-0.6883,-0.6869,-0.6865,-0.6854,-0.6855,-0.6849,-0.6844,-0.6838,-0.6828,-0.6823,-0.6819,-0.6827,-0.6818,-0.6822,-0.682,-0.6821,-0.6821,-0.683,-0.683,-0.683,-0.6831,0,-0.6941,-0.6934,-0.6928,-0.692,-0.6915,-0.6908,-0.69,-0.6899,-0.6883,-0.6879,-0.6874,-0.687,-0.6863,-0.6858,-0.685,-0.6845,-0.6836,-0.6833,-0.6835,-0.684,-0.6845,-0.6843,-0.6814,-0.6833,-0.6833,-0.6833,-0.6833,-0.6833,-0.696,-0.696,-0.6948,-0.6942,-0.6934,-0.6927,-0.6926,-0.6916,-0.6911,-0.6903,-0.6895,-0.6891,-0.6881,-0.6871,-0.6865,-0.6863,-0.6858,-0.686,-0.686,-0.6861,-0.6864,-0.6844,-0.6861,-0.6861,-0.6861,-0.6861,-0.6861,0,-0.6984,-0.6976,-0.697,-0.6959,-0.6955,-0.6945,-0.6936,-0.6933,-0.6929,-0.6921,-0.6916,-0.691,-0.6905,-0.6894,-0.6888,-0.6888,-0.6884,-0.6887,-0.6888,-0.6887,-0.6868,-0.6868,-0.6891,-0.6891,-0.6891,-0.6891,-0.6891,-0.6891,-0.6996,-0.6995,-0.6986,-0.6981,-0.6972,-0.6968,-0.6964,-0.6957,-0.695,-0.6944,-0.694,-0.6932,-0.6923,-0.6916,-0.6911,-0.6908,-0.6907,-0.6912,-0.6908,-0.6891,-0.6888,-0.6885,-0.6885,-0.6912,-0.6912,-0.6928,-0.6928,-0.6928]},{"header":{"parameterUnit":"m.s-1","parameterCategory":1,"la1":30.2991,"la2":30.254,"lo1":-89.0895,"lo2":-89.0444,"dy":0.0017,"dx":0.0017,"nx":28,"ny":28,"refTime":"2025-04-21T09:00:00:Z","depth":0,"parameterNumber":3,"parameterNumberName":"V-component_of_WINDS"},"data":[0,0,0,0,0,0,0,0,0,0,0,0,0,0,0,0,0,0,0,0,0,0,0,0,0,0,0,0,0,0,0,0,0,0,0,0,0,0,0,0,0,0,0,0,0,0,0,0,0,0,0,0,0,0,0,0,0,0,3.7334,3.7335,0,3.7393,3.7394,3.7394,3.7424,3.7424,3.7424,3.7424,3.7479,3.748,3.7481,0,0,0,0,0,0,0,0,0,0,0,0,0,3.7242,3.7243,3.7334,3.7335,3.7335,3.7393,3.7394,3.7395,3.7424,3.7424,3.7424,3.7424,3.7478,3.748,3.7482,0,0,0,0,0,0,0,0,0,0,0,0,0,3.7289,3.7244,3.7334,3.7357,3.736,3.7393,3.7394,3.7395,3.7424,3.7424,3.7424,3.7424,3.7478,3.748,3.7482,3.7495,0,0,3.7488,3.7489,0,0,0,0,0,0,0,0,3.7287,3.7293,3.7353,3.7356,3.7359,3.7401,3.7382,3.7428,3.7424,3.7399,3.7424,3.7424,3.7452,3.7457,3.7468,3.7497,3.7499,3.7489,3.749,3.7491,3.7491,0,0,0,0,0,0,0,3.7283,3.729,3.7357,3.7354,3.7357,3.7363,3.737,3.739,3.7425,3.7401,3.7404,3.7411,3.7454,3.7465,3.7469,3.75,3.7489,3.749,3.7492,3.7493,3.7545,3.7546,0,0,0,0,0,0,3.7277,3.7287,3.7355,3.7359,3.7322,3.7365,3.7372,3.7387,3.7425,3.743,3.741,3.7412,3.7462,3.7466,3.7471,3.749,3.7491,3.7493,3.7494,3.7545,3.7545,3.7546,0,0,0,0,0,0,3.7275,3.7283,3.7353,3.7324,3.7333,3.7366,3.7383,3.7389,3.74,3.7432,3.7437,3.7416,3.7462,3.7468,3.7489,3.7492,3.7494,3.7496,3.7545,3.7545,3.7546,3.7527,0,0,0,0,0,0,3.7272,3.7282,3.7288,3.7324,3.7335,3.7371,3.7383,3.739,3.7404,3.7407,3.7439,3.7444,3.7462,3.7486,3.7492,3.7495,3.7497,3.7545,3.7545,3.7545,3.7528,3.7527,3.7526,0,0,0,0,0,3.7269,3.7278,3.7288,3.7296,3.7343,3.7372,3.7378,3.7401,3.7404,3.7411,3.7431,3.7443,3.7491,3.7488,3.7494,3.7499,3.7545,3.7545,3.7545,3.7528,3.7527,3.7526,0,0,0,0,0,0,3.7239,3.7284,3.7294,3.7317,3.7341,3.7376,3.7385,3.7398,3.742,3.7421,3.7446,3.7453,3.7473,3.7488,3.7483,3.7514,3.7519,3.7521,3.7504,3.7503,3.7502,3.7498,3.7499,0,0,0,0,0,3.7236,3.7257,3.7294,3.7309,3.7321,3.7351,3.7364,3.738,3.7405,3.7414,3.7436,3.7458,3.7479,3.7492,3.7512,3.753,3.7538,3.7537,3.7536,3.7535,3.7536,3.7548,3.7548,3.7546,3.7546,3.7546,0,0,3.7228,3.7255,3.7266,3.7304,3.7325,3.7345,3.7359,3.7379,3.7394,3.7417,3.7439,3.7456,3.7483,3.7503,3.7513,3.7516,3.7538,3.7535,3.7534,3.7536,3.7549,3.7549,3.7549,3.7547,3.7546,3.7546,0,0,3.7224,3.7246,3.7263,3.7284,3.7316,3.7336,3.734,3.7375,3.7388,3.7412,3.743,3.7447,3.7481,3.75,3.7514,3.752,3.7532,3.7526,3.7521,3.7533,3.7533,3.7534,3.7537,3.7538,3.7527,3.7527,3.7527,0,3.721,3.7243,3.727,3.729,3.7307,3.7331,3.7348,3.7366,3.7402,3.7412,3.7416,3.7461,3.748,3.7507,3.7509,3.7518,3.7524,3.7522,3.7531,3.7532,3.7533,3.7536,3.7537,3.7526,3.7526,3.7526,3.7526,0,3.7225,3.7247,3.7257,3.7294,3.7312,3.733,3.7359,3.7373,3.7388,3.7407,3.7431,3.7456,3.7483,3.749,3.7503,3.7518,3.7519,3.7527,3.7532,3.7532,3.7535,3.7537,3.7525,3.7525,3.7525,3.7525,0,0,3.7203,3.7257,3.726,3.7279,3.7316,3.7334,3.7353,3.7382,3.7394,3.7418,3.7435,3.7465,3.7473,3.7489,3.7504,3.7514,3.752,3.7521,3.7522,3.7521,3.754,3.7535,3.7536,3.7528,3.7528,3.7528,3.7538,0,3.7206,3.7245,3.727,3.7299,3.732,3.7344,3.7362,3.7386,3.7405,3.7425,3.7445,3.7466,3.7474,3.7485,3.7496,3.7517,3.7524,3.7516,3.7544,3.7544,3.7538,3.7538,3.7532,3.754,3.7539,3.754,3.754,0,3.7214,3.7241,3.7272,3.731,3.732,3.7335,3.7365,3.7384,3.7412,3.7425,3.7444,3.7461,3.7482,3.7486,3.7515,3.7509,3.7522,3.7534,3.7535,3.7539,3.7542,3.7542,3.7542,3.7544,3.7542,3.7542,3.7542,0,3.7197,3.7241,3.7266,3.728,3.7324,3.7335,3.7353,3.7382,3.7398,3.7423,3.7434,3.746,3.7474,3.7494,3.7517,3.7517,3.7544,3.7549,3.7556,3.7555,3.7561,3.756,3.7564,3.7567,3.7567,3.7567,3.7567,0,3.7198,3.7216,3.726,3.7275,3.7296,3.7325,3.7345,3.7365,3.7391,3.741,3.7431,3.7448,3.7477,3.7498,3.7515,3.7538,3.7543,3.7554,3.7559,3.7553,3.7552,3.7562,3.7563,3.7567,3.7567,3.7567,3.7567,0,3.7183,3.7212,3.7242,3.7282,3.7293,3.7307,3.7341,3.7357,3.7378,3.7402,3.7409,3.7441,3.7466,3.7491,3.7524,3.7536,3.7559,3.7564,3.755,3.7553,3.7558,3.7558,3.7569,3.7573,3.7573,3.7572,3.7572,0,3.7182,3.7198,3.7241,3.7257,3.7276,3.73,3.7318,3.7347,3.7364,3.7399,3.741,3.7438,3.7461,3.7501,3.7526,3.7552,3.7559,3.7561,3.7562,3.7557,3.756,3.756,3.7562,3.756,3.756,3.756,3.756,0,3.7178,3.7193,3.7219,3.7251,3.7272,3.7298,3.7324,3.7335,3.7369,3.7387,3.7415,3.7433,3.7469,3.7496,3.7525,3.7543,3.7557,3.7559,3.7562,3.7557,3.7549,3.7555,3.7549,3.7559,3.7559,3.7559,3.7559,3.7559,3.7171,3.7187,3.7221,3.725,3.7273,3.7298,3.7316,3.734,3.7364,3.7398,3.7412,3.744,3.7469,3.7511,3.7528,3.755,3.7553,3.7557,3.7558,3.7559,3.7558,3.7545,3.7555,3.7555,3.7555,3.7555,3.7555,0,3.7169,3.7193,3.722,3.7258,3.728,3.7294,3.7324,3.7342,3.7368,3.7394,3.7418,3.7451,3.7478,3.7506,3.7534,3.7546,3.7553,3.7553,3.7552,3.7556,3.7553,3.7548,3.7546,3.7546,3.7546,3.7546,3.7546,3.7546,3.7171,3.72,3.7219,3.7259,3.7282,3.7312,3.7328,3.7351,3.7373,3.7409,3.7433,3.7452,3.7479,3.751,3.7535,3.7543,3.7553,3.755,3.756,3.7556,3.7556,3.7557,3.7553,3.7552,3.7552,3.7562,3.7562,3.7562]}]]